Total_Precipitation_Accumulation
2.15 2.83 3.52 4.08 4.75 5.51 6.10 5.97 5.34 4.82 4.21 3.68 3.12 3.03 2.88 2.60 2.33 2.09 1.83 1.78 1.74 1.55 1.55 1.45 1.56 1.33 1.33 1.39 1.43 1.61 1.70 1.61 1.64 1.98 2.09 1.71 1.41 1.46 1.48 1.49 1.74 1.81 1.78
2.10 2.89 3.50 3.71 3.71 4.00 4.25 3.76 3.55 3.53 3.12 2.80 2.72 2.59 2.47 2.21 1.98 1.85 1.79 1.48 1.48 1.46 1.38 1.57 1.48 1.39 1.45 1.40 1.41 1.57 1.66 1.61 1.66 1.87 2.08 1.85 1.87 1.68 1.28 1.51 1.61 1.67 1.88
2.24 2.74 2.90 2.91 2.80 2.79 2.78 2.56 2.49 2.78 2.70 2.65 2.57 2.51 2.49 2.37 2.10 1.76 1.72 1.44 1.29 1.32 1.44 1.43 1.50 1.54 1.30 1.44 1.52 1.49 1.53 1.58 1.53 1.54 1.85 1.88 1.89 1.68 1.34 1.32 1.39 1.57 1.85
2.20 2.18 1.78 1.67 1.81 1.90 2.00 2.25 2.32 2.44 2.36 2.40 2.19 1.99 1.84 1.73 1.63 1.55 1.59 1.60 1.41 1.32 1.29 1.32 1.53 1.59 1.37 1.53 1.22 1.30 1.51 1.58 1.43 1.45 1.42 1.45 1.61 1.73 1.69 1.47 1.37 1.45 1.56
1.27 1.05 0.91 0.98 1.21 1.46 1.71 2.10 2.18 2.22 2.13 2.07 2.06 2.08 1.95 1.92 1.79 1.71 1.83 1.83 1.80 1.61 1.36 1.35 1.53 1.63 1.54 1.54 1.42 1.62 1.46 1.36 1.33 1.37 1.44 1.46 1.43 1.33 1.56 1.65 1.58 1.50 1.31
0.64 0.67 0.72 0.92 1.14 1.31 1.42 1.64 1.82 2.01 2.06 2.07 2.12 2.07 2.02 2.07 1.89 1.73 1.65 1.63 1.68 1.63 1.55 1.52 1.70 1.72 1.62 1.60 1.52 1.57 1.49 1.46 1.46 1.36 1.33 1.55 1.54 1.42 1.55 1.46 1.45 1.43 1.16
0.49 0.66 0.74 0.92 1.01 1.11 1.13 1.23 1.36 1.58 1.73 1.81 1.92 1.97 2.01 2.04 1.85 1.74 1.62 1.57 1.47 1.43 1.55 1.64 1.82 1.71 1.64 1.57 1.58 1.59 1.60 1.63 1.65 1.52 1.35 1.35 1.45 1.47 1.46 1.43 1.28 1.26 1.19
0.36 0.42 0.50 0.56 0.68 0.82 1.01 1.15 1.20 1.24 1.28 1.33 1.52 1.71 1.76 1.78 1.71 1.77 1.57 1.47 1.38 1.39 1.53 1.62 1.57 1.54 1.53 1.45 1.59 1.51 1.48 1.52 1.56 1.48 1.68 1.60 1.38 1.50 1.52 1.59 1.71 1.63 1.54
0.35 0.32 0.33 0.41 0.49 0.52 0.66 0.88 0.97 0.99 1.02 1.10 1.24 1.34 1.40 1.52 1.65 1.63 1.46 1.30 1.34 1.37 1.40 1.36 1.37 1.41 1.44 1.53 1.67 1.58 1.52 1.59 1.49 1.49 1.79 1.70 1.44 1.43 1.50 1.58 1.80 2.04 1.86
0.32 0.34 0.36 0.38 0.41 0.44 0.54 0.71 0.86 0.90 0.93 0.99 1.06 1.03 1.18 1.30 1.44 1.48 1.42 1.28 1.25 1.34 1.39 1.36 1.37 1.38 1.31 1.38 1.54 1.48 1.55 1.63 1.62 1.63 1.69 1.69 1.59 1.58 1.62 1.68 1.80 2.02 2.03
0.35 0.41 0.38 0.43 0.39 0.37 0.44 0.55 0.72 0.83 0.81 0.87 0.95 1.04 1.14 1.31 1.37 1.35 1.39 1.35 1.32 1.37 1.40 1.42 1.45 1.43 1.39 1.42 1.50 1.43 1.54 1.61 1.72 1.72 1.65 1.65 1.79 1.82 1.71 1.75 1.79 1.96 2.15
0.40 0.42 0.40 0.42 0.35 0.37 0.44 0.51 0.60 0.71 0.77 0.84 0.94 1.04 1.12 1.21 1.31 1.27 1.35 1.46 1.45 1.47 1.46 1.47 1.53 1.46 1.48 1.53 1.44 1.45 1.52 1.59 1.63 1.72 1.86 1.87 1.90 1.86 1.77 1.83 1.86 2.01 2.26
0.44 0.43 0.51 0.49 0.42 0.41 0.46 0.54 0.66 0.78 0.86 0.93 1.01 1.05 1.03 1.11 1.26 1.30 1.33 1.41 1.50 1.56 1.52 1.46 1.48 1.53 1.60 1.60 1.44 1.40 1.39 1.36 1.34 1.48 1.74 1.98 2.23 2.12 1.96 1.90 1.89 1.97 2.08
0.39 0.49 0.56 0.60 0.66 0.64 0.66 0.75 0.88 0.88 0.90 0.86 0.92 1.01 1.05 1.19 1.33 1.38 1.39 1.42 1.43 1.47 1.53 1.55 1.53 1.51 1.50 1.48 1.47 1.48 1.43 1.35 1.27 1.31 1.42 1.57 1.79 1.99 2.10 1.95 1.82 1.88 2.01
0.52 0.56 0.64 0.69 0.75 0.80 0.79 0.79 0.87 0.88 0.91 1.07 1.18 1.22 1.22 1.28 1.41 1.50 1.48 1.53 1.55 1.52 1.65 1.72 1.68 1.62 1.57 1.48 1.57 1.67 1.54 1.53 1.44 1.40 1.38 1.31 1.43 1.57 1.74 1.75 1.92 1.97 1.97
0.61 0.69 0.75 0.79 0.80 0.81 0.89 0.93 0.95 0.98 1.13 1.48 1.62 1.59 1.58 1.61 1.62 1.63 1.63 1.70 1.77 1.93 1.97 1.89 1.83 1.79 1.60 1.69 1.69 1.66 1.65 1.71 1.67 1.61 1.55 1.44 1.35 1.38 1.47 1.53 1.66 1.82 1.88
0.58 0.65 0.79 0.89 0.87 0.84 0.88 0.98 1.06 1.14 1.27 1.51 1.63 1.66 1.66 1.69 1.79 1.82 1.84 1.89 2.00 2.07 2.11 2.15 2.10 2.03 2.05 1.97 1.68 1.62 1.62 1.70 1.72 1.80 1.83 1.55 1.33 1.42 1.39 1.48 1.50 1.49 1.58
0.65 0.75 0.79 0.90 0.97 1.01 1.05 1.17 1.32 1.46 1.52 1.63 1.79 1.86 1.83 1.84 1.89 1.90 1.85 1.87 1.99 2.02 1.99 1.94 1.87 1.85 1.83 1.78 1.54 1.44 1.36 1.48 1.55 1.56 1.56 1.55 1.42 1.33 1.34 1.36 1.29 1.23 1.25
0.81 0.96 1.10 1.10 1.14 1.25 1.34 1.40 1.58 1.70 1.73 1.75 1.94 2.05 2.12 2.20 2.13 2.03 2.02 2.02 2.02 1.89 1.79 1.70 1.67 1.65 1.68 1.69 1.50 1.38 1.26 1.30 1.32 1.33 1.35 1.39 1.30 1.31 1.20 1.13 1.13 1.11 1.06
0.84 0.94 1.14 1.28 1.28 1.43 1.52 1.55 1.57 1.63 1.70 1.71 1.82 1.98 2.09 2.26 2.36 2.28 2.27 2.21 2.11 2.00 1.91 1.82 1.80 1.77 1.81 1.90 1.66 1.51 1.37 1.42 1.43 1.50 1.47 1.42 1.29 1.24 1.09 1.00 1.02 0.98 0.91
0.85 0.88 0.96 1.12 1.22 1.30 1.36 1.48 1.53 1.51 1.60 1.62 1.61 1.76 1.96 2.14 2.27 2.36 2.33 2.34 2.26 2.14 1.94 1.79 1.76 1.77 1.85 1.94 1.78 1.60 1.38 1.39 1.51 1.58 1.62 1.57 1.44 1.16 1.01 0.89 0.85 0.84 0.88
0.90 0.92 0.97 1.04 1.12 1.24 1.43 1.58 1.61 1.61 1.63 1.67 1.76 1.86 2.02 2.10 2.09 2.14 2.21 2.29 2.24 2.19 2.08 1.84 1.62 1.55 1.54 1.55 1.54 1.35 1.22 1.23 1.33 1.47 1.59 1.60 1.48 1.24 1.07 0.92 0.83 0.80 0.76
0.97 0.93 0.97 1.08 1.24 1.40 1.61 1.82 1.84 1.85 1.85 1.86 1.91 1.96 2.04 2.10 2.14 2.12 2.09 2.09 2.02 1.89 1.81 1.69 1.59 1.52 1.47 1.40 1.28 1.08 0.97 0.99 1.06 1.20 1.48 1.58 1.46 1.30 1.10 0.99 0.91 0.79 0.69
1.01 0.97 0.95 1.02 1.22 1.34 1.45 1.66 1.78 1.81 1.92 1.87 1.81 1.75 1.74 1.76 1.80 1.85 1.87 1.89 1.85 1.79 1.70 1.59 1.55 1.48 1.42 1.29 1.21 1.13 1.02 1.01 1.04 1.07 1.25 1.36 1.34 1.20 1.11 1.01 0.89 0.77 0.73
1.04 1.03 1.05 1.08 1.13 1.20 1.26 1.36 1.50 1.61 1.78 1.87 1.85 1.85 1.81 1.75 1.75 1.80 1.86 1.75 1.71 1.72 1.61 1.50 1.55 1.52 1.37 1.32 1.29 1.23 1.17 1.12 1.16 1.14 1.18 1.28 1.35 1.34 1.28 1.24 1.13 1.02 0.94
0.99 1.06 1.13 1.17 1.15 1.17 1.26 1.36 1.49 1.66 1.86 1.87 1.79 1.80 1.85 1.87 1.85 1.83 1.88 1.91 1.71 1.66 1.54 1.46 1.41 1.38 1.29 1.20 1.07 1.05 1.03 0.95 0.92 0.85 0.94 1.12 1.29 1.42 1.45 1.48 1.40 1.28 1.17